| time (UTC) | temp F | wind direction | speed knots | gust knots | rain 1hr in | rain 24hr in | rain mn in | humidity % | barometer mb |
| 20260504175059 | 69 | 267 | 5.2 | 15.6 | 0.00 | 0.00 | 0.00 | 38 | 1011.7 |
| 20260504174614 | 70 | 175 | 4.3 | 12.2 | 0.00 | 0.00 | 0.00 | 38 | 1011.8 |
| 20260504174059 | 69 | 215 | 1.7 | 13.0 | 0.00 | 0.00 | 0.00 | 39 | 1012.0 |
| 20260504173559 | 69 | 200 | 6.1 | 13.0 | 0.00 | 0.00 | 0.00 | 37 | 1011.8 |
| 20260504173102 | 69 | 210 | 5.2 | 12.2 | 0.00 | 0.00 | 0.00 | 37 | 1012.0 |
| 20260504172558 | 70 | 284 | 2.6 | 12.2 | 0.00 | 0.00 | 0.00 | 39 | 1012.1 |
| 20260504172059 | 70 | 264 | 2.6 | 13.9 | 0.00 | 0.00 | 0.00 | 38 | 1012.0 |
| 20260504171602 | 69 | 307 | 3.5 | 14.8 | 0.00 | 0.00 | 0.00 | 38 | 1012.1 |
| 20260504171059 | 69 | 223 | 5.2 | 14.8 | 0.00 | 0.00 | 0.00 | 38 | 1012.2 |
| 20260504170600 | 68 | 134 | 6.1 | 13.0 | 0.00 | 0.00 | 0.00 | 39 | 1012.3 |
| 20260504160109 | 66 | 302 | 6.1 | 13.9 | 0.00 | 0.00 | 0.00 | 39 | 1013.2 |
| 20260504151059 | 64 | 301 | 4.3 | 14.8 | 0.00 | 0.00 | 0.00 | 42 | 1013.9 |
| 20260504150559 | 64 | 317 | 5.2 | 14.8 | 0.00 | 0.00 | 0.00 | 44 | 1014.1 |
| 20260504150113 | 64 | 265 | 4.3 | 12.2 | 0.00 | 0.00 | 0.00 | 42 | 1014.1 |
| 20260504141100 | 62 | 243 | 4.3 | 10.4 | 0.00 | 0.00 | 0.00 | 46 | 1014.0 |
| 20260504140600 | 61 | 191 | 4.3 | 10.4 | 0.00 | 0.00 | 0.00 | 47 | 1014.0 |
| 20260504130601 | 57 | 297 | 2.6 | 8.7 | 0.00 | 0.00 | 0.00 | 54 | 1014.5 |
| 20260504120105 | 46 | 151 | 1.7 | 3.5 | 0.00 | 0.00 | 0.00 | 80 | 1015.0 |
| 20260504110559 | 39 | 205 | 0.9 | 1.7 | 0.00 | 0.00 | 0.00 | 91 | 1015.3 |
| 20260504100602 | 38 | 229 | 1.7 | 2.6 | 0.00 | 0.00 | 0.00 | 92 | 1015.2 |
| 20260504090110 | 38 | 253 | 0.9 | 1.7 | 0.00 | 0.00 | 0.00 | 92 | 1015.1 |
| 20260504081556 | 38 | 0 | 0.0 | 0.0 | 0.00 | 0.00 | 0.00 | 90 | 1015.0 |
| 20260504081059 | 39 | 0 | 0.0 | 0.0 | 0.00 | 0.00 | 0.00 | 91 | 1015.0 |
| 20260504080603 | 39 | 0 | 0.0 | 0.0 | 0.00 | 0.00 | 0.00 | 91 | 1015.0 |
| 20260504050600 | 42 | 0 | 0.0 | 0.0 | 0.00 | 0.00 | 0.00 | 84 | 1014.8 |
| 20260504045600 | 42 | 0 | 0.0 | 0.0 | 0.00 | 0.00 | 0.00 | 84 | 1014.7 |
| 20260504045058 | 42 | 0 | 0.0 | 0.0 | 0.00 | 0.00 | 0.00 | 84 | 1014.7 |
| 20260504044605 | 42 | 0 | 0.0 | 0.0 | 0.00 | 0.00 | 0.00 | 84 | 1014.7 |
| 20260504044102 | 42 | 0 | 0.0 | 0.0 | 0.00 | 0.00 | 0.00 | 85 | 1014.7 |
| 20260504043600 | 42 | 0 | 0.0 | 0.0 | 0.00 | 0.00 | 0.00 | 84 | 1014.6 |
| 20260504043102 | 42 | 0 | 0.0 | 0.0 | 0.00 | 0.00 | 0.00 | 83 | 1014.6 |
| 20260504042600 | 42 | 0 | 0.0 | 0.0 | 0.00 | 0.00 | 0.00 | 83 | 1014.6 |
| 20260504042059 | 42 | 0 | 0.0 | 0.0 | 0.00 | 0.00 | 0.00 | 84 | 1014.5 |
| 20260504041558 | 42 | 0 | 0.0 | 0.0 | 0.00 | 0.00 | 0.00 | 82 | 1014.4 |
| 20260504041100 | 42 | 0 | 0.0 | 0.0 | 0.00 | 0.00 | 0.00 | 81 | 1014.3 |
| 20260504040559 | 43 | 0 | 0.0 | 0.0 | 0.00 | 0.00 | 0.00 | 81 | 1014.2 |
| 20260504040107 | 43 | 0 | 0.0 | 0.0 | 0.00 | 0.00 | 0.00 | 81 | 1014.2 |
| 20260504035558 | 43 | 0 | 0.0 | 0.0 | 0.00 | 0.00 | 0.00 | 81 | 1014.0 |
| 20260504035101 | 43 | 0 | 0.0 | 0.0 | 0.00 | 0.00 | 0.00 | 82 | 1014.0 |
| 20260504034634 | 43 | 0 | 0.0 | 0.0 | 0.00 | 0.00 | 0.00 | 79 | 1013.9 |
| 20260504034103 | 43 | 0 | 0.0 | 0.0 | 0.00 | 0.00 | 0.00 | 79 | 1014.0 |
| 20260504033600 | 44 | 0 | 0.0 | 0.0 | 0.00 | 0.00 | 0.00 | 78 | 1013.9 |
| 20260504033104 | 44 | 0 | 0.0 | 0.0 | 0.00 | 0.00 | 0.00 | 77 | 1013.9 |
| 20260504032600 | 44 | 0 | 0.0 | 0.0 | 0.00 | 0.00 | 0.00 | 76 | 1013.9 |
| 20260504032100 | 44 | 0 | 0.0 | 0.0 | 0.00 | 0.00 | 0.00 | 76 | 1013.9 |
| 20260504031600 | 44 | 0 | 0.0 | 0.0 | 0.00 | 0.00 | 0.00 | 76 | 1013.9 |
| 20260504031101 | 45 | 0 | 0.0 | 0.0 | 0.00 | 0.00 | 0.00 | 75 | 1013.9 |
| 20260504030559 | 45 | 0 | 0.0 | 0.0 | 0.00 | 0.00 | 0.00 | 76 | 1014.0 |
| 20260504030124 | 45 | 0 | 0.0 | 0.0 | 0.00 | 0.00 | 0.00 | 76 | 1013.9 |
| 20260504025600 | 45 | 0 | 0.0 | 0.0 | 0.00 | 0.00 | 0.00 | 76 | 1013.8 |
| 20260504025102 | 46 | 0 | 0.0 | 0.0 | 0.00 | 0.00 | 0.00 | 77 | 1013.9 |
| 20260504024602 | 46 | 0 | 0.0 | 0.0 | 0.00 | 0.00 | 0.00 | 77 | 1013.9 |
| 20260504024101 | 45 | 0 | 0.0 | 0.0 | 0.00 | 0.00 | 0.00 | 76 | 1013.9 |
| 20260504023601 | 46 | 0 | 0.0 | 0.0 | 0.00 | 0.00 | 0.00 | 73 | 1014.0 |
| 20260504023103 | 46 | 0 | 0.0 | 0.0 | 0.00 | 0.00 | 0.00 | 72 | 1013.9 |
| 20260504022601 | 46 | 0 | 0.0 | 0.0 | 0.00 | 0.00 | 0.00 | 72 | 1013.9 |
| 20260504022059 | 47 | 0 | 0.0 | 0.0 | 0.00 | 0.00 | 0.00 | 72 | 1013.9 |
| 20260504021558 | 47 | 0 | 0.0 | 0.0 | 0.00 | 0.00 | 0.00 | 69 | 1013.9 |
| 20260504021102 | 47 | 0 | 0.0 | 0.0 | 0.00 | 0.00 | 0.00 | 67 | 1013.9 |
| 20260504020557 | 47 | 0 | 0.0 | 0.0 | 0.00 | 0.00 | 0.00 | 67 | 1014.0 |
| 20260504020108 | 48 | 0 | 0.0 | 0.0 | 0.00 | 0.00 | 0.00 | 64 | 1014.0 |
| 20260504015601 | 48 | 0 | 0.0 | 0.0 | 0.00 | 0.00 | 0.00 | 65 | 1013.9 |
| 20260504015100 | 48 | 0 | 0.0 | 0.0 | 0.00 | 0.00 | 0.00 | 66 | 1013.9 |
| 20260504014607 | 48 | 0 | 0.0 | 0.0 | 0.00 | 0.00 | 0.00 | 66 | 1013.9 |
| 20260504014101 | 48 | 0 | 0.0 | 0.0 | 0.00 | 0.00 | 0.00 | 63 | 1013.8 |
| 20260504013559 | 48 | 0 | 0.0 | 0.0 | 0.00 | 0.00 | 0.00 | 61 | 1013.8 |
| 20260504013058 | 49 | 0 | 0.0 | 0.0 | 0.00 | 0.00 | 0.00 | 62 | 1013.8 |
| 20260504012556 | 49 | 0 | 0.0 | 0.0 | 0.00 | 0.00 | 0.00 | 62 | 1013.8 |
| 20260504012056 | 49 | 0 | 0.0 | 0.0 | 0.00 | 0.00 | 0.00 | 63 | 1013.7 |
| 20260504011559 | 49 | 0 | 0.0 | 0.0 | 0.00 | 0.00 | 0.00 | 62 | 1013.6 |
| 20260504011058 | 49 | 0 | 0.0 | 0.0 | 0.00 | 0.00 | 0.00 | 62 | 1013.6 |
| 20260504010558 | 50 | 0 | 0.0 | 0.0 | 0.00 | 0.00 | 0.00 | 61 | 1013.5 |
| 20260504010058 | 50 | 0 | 0.0 | 0.0 | 0.00 | 0.00 | 0.00 | 58 | 1013.5 |
| 20260504005559 | 50 | 0 | 0.0 | 0.0 | 0.00 | 0.00 | 0.00 | 56 | 1013.4 |
| 20260504005105 | 51 | 0 | 0.0 | 0.0 | 0.00 | 0.00 | 0.00 | 54 | 1013.3 |
| 20260504004558 | 51 | 0 | 0.0 | 1.7 | 0.00 | 0.00 | 0.00 | 56 | 1013.3 |
| 20260504004100 | 51 | 0 | 0.0 | 1.7 | 0.00 | 0.00 | 0.00 | 55 | 1013.3 |
| 20260504003601 | 52 | 0 | 0.0 | 1.7 | 0.00 | 0.00 | 0.00 | 54 | 1013.2 |
| 20260504003100 | 52 | 253 | 0.0 | 1.7 | 0.00 | 0.00 | 0.00 | 54 | 1013.0 |
| 20260504002559 | 53 | 253 | 0.0 | 1.7 | 0.00 | 0.00 | 0.00 | 50 | 1012.9 |
| 20260504002059 | 53 | 253 | 0.0 | 1.7 | 0.00 | 0.00 | 0.00 | 53 | 1012.7 |
| 20260504001607 | 54 | 0 | 0.0 | 1.7 | 0.00 | 0.00 | 0.00 | 50 | 1012.7 |
| 20260504001059 | 54 | 253 | 0.0 | 1.7 | 0.00 | 0.00 | 0.00 | 51 | 1012.6 |
| 20260504000559 | 55 | 0 | 0.0 | 1.7 | 0.00 | 0.00 | 0.00 | 49 | 1012.5 |
| 20260504000059 | 55 | 253 | 0.0 | 1.7 | 0.00 | 0.00 | 0.00 | 46 | 1012.6 |
| 20260503235559 | 56 | 253 | 0.0 | 1.7 | 0.00 | 0.00 | 0.00 | 47 | 1012.6 |
| 20260503235059 | 56 | 253 | 0.0 | 1.7 | 0.00 | 0.00 | 0.00 | 46 | 1012.5 |
| 20260503234558 | 57 | 253 | 0.9 | 1.7 | 0.00 | 0.00 | 0.00 | 42 | 1012.4 |
| 20260503234059 | 57 | 255 | 0.9 | 2.6 | 0.00 | 0.00 | 0.00 | 42 | 1012.4 |
| 20260503233559 | 58 | 254 | 0.9 | 2.6 | 0.00 | 0.00 | 0.00 | 42 | 1012.3 |
| 20260503233102 | 58 | 280 | 0.9 | 1.7 | 0.00 | 0.00 | 0.00 | 39 | 1012.3 |
| 20260503232600 | 59 | 282 | 0.9 | 3.5 | 0.00 | 0.00 | 0.00 | 38 | 1012.3 |
| 20260503232059 | 59 | 229 | 0.9 | 3.5 | 0.00 | 0.00 | 0.00 | 37 | 1012.3 |
| 20260503231558 | 59 | 266 | 0.9 | 3.5 | 0.00 | 0.00 | 0.00 | 37 | 1012.2 |
| 20260503231059 | 60 | 262 | 0.9 | 7.8 | 0.00 | 0.00 | 0.00 | 36 | 1012.3 |
| 20260503230600 | 60 | 257 | 3.5 | 7.8 | 0.00 | 0.00 | 0.00 | 35 | 1012.3 |
| 20260503225559 | 60 | 309 | 0.9 | 5.2 | 0.00 | 0.00 | 0.00 | 35 | 1012.2 |
| 20260503225102 | 60 | 344 | 1.7 | 4.3 | 0.00 | 0.00 | 0.00 | 35 | 1012.1 |
| 20260503224558 | 60 | 323 | 1.7 | 6.1 | 0.00 | 0.00 | 0.00 | 37 | 1012.1 |
| 20260503224100 | 60 | 38 | 1.7 | 13.9 | 0.00 | 0.00 | 0.00 | 36 | 1012.1 |
| 20260503223559 | 60 | 344 | 4.3 | 13.9 | 0.00 | 0.00 | 0.00 | 35 | 1012.1 |
| 20260503223057 | 60 | 320 | 3.5 | 9.6 | 0.00 | 0.00 | 0.00 | 35 | 1012.2 |
| 20260503222558 | 60 | 312 | 2.6 | 7.0 | 0.00 | 0.00 | 0.00 | 35 | 1012.2 |
| 20260503222100 | 60 | 275 | 1.7 | 7.0 | 0.00 | 0.00 | 0.00 | 36 | 1012.1 |
| 20260503221602 | 59 | 339 | 3.5 | 12.2 | 0.00 | 0.00 | 0.00 | 34 | 1012.2 |
| 20260503221101 | 59 | 334 | 4.3 | 10.4 | 0.00 | 0.00 | 0.00 | 34 | 1012.2 |
| 20260503220600 | 60 | 336 | 3.5 | 12.2 | 0.00 | 0.00 | 0.00 | 33 | 1012.1 |
| 20260503220059 | 60 | 9 | 4.3 | 13.0 | 0.00 | 0.00 | 0.00 | 33 | 1012.1 |
| 20260503215600 | 60 | 335 | 5.2 | 15.6 | 0.00 | 0.00 | 0.00 | 32 | 1012.1 |
| 20260503215059 | 60 | 311 | 6.1 | 15.6 | 0.00 | 0.00 | 0.00 | 33 | 1012.2 |
| 20260503214604 | 60 | 336 | 5.2 | 13.9 | 0.00 | 0.00 | 0.00 | 33 | 1012.3 |
| 20260503214059 | 60 | 318 | 7.0 | 13.9 | 0.00 | 0.00 | 0.00 | 34 | 1012.2 |
| 20260503213559 | 60 | 340 | 7.0 | 13.0 | 0.00 | 0.00 | 0.00 | 34 | 1012.0 |
| 20260503213058 | 60 | 300 | 1.7 | 11.3 | 0.00 | 0.00 | 0.00 | 34 | 1012.1 |
| 20260503212601 | 60 | 298 | 3.5 | 11.3 | 0.00 | 0.00 | 0.00 | 34 | 1012.1 |
| 20260503212100 | 61 | 323 | 5.2 | 11.3 | 0.00 | 0.00 | 0.00 | 32 | 1012.1 |
| 20260503211602 | 60 | 308 | 4.3 | 10.4 | 0.00 | 0.00 | 0.00 | 32 | 1012.0 |
| 20260503211102 | 60 | 268 | 4.3 | 15.6 | 0.00 | 0.00 | 0.00 | 32 | 1012.0 |
| 20260503210600 | 60 | 316 | 7.0 | 15.6 | 0.00 | 0.00 | 0.00 | 32 | 1012.2 |
| 20260503210057 | 60 | 268 | 4.3 | 12.2 | 0.00 | 0.00 | 0.00 | 33 | 1012.1 |
| 20260503205600 | 60 | 347 | 3.5 | 12.2 | 0.00 | 0.00 | 0.00 | 33 | 1012.1 |
| 20260503205100 | 60 | 346 | 7.0 | 12.2 | 0.00 | 0.00 | 0.00 | 32 | 1012.1 |
| 20260503204602 | 60 | 291 | 2.6 | 11.3 | 0.00 | 0.00 | 0.00 | 34 | 1012.3 |
| 20260503204059 | 59 | 252 | 5.2 | 14.8 | 0.00 | 0.00 | 0.00 | 33 | 1012.2 |
| 20260503203559 | 59 | 209 | 5.2 | 14.8 | 0.00 | 0.00 | 0.00 | 33 | 1012.3 |
| 20260503203103 | 59 | 302 | 3.5 | 12.2 | 0.00 | 0.00 | 0.00 | 34 | 1012.3 |
| 20260503202559 | 59 | 269 | 5.2 | 12.2 | 0.00 | 0.00 | 0.00 | 35 | 1012.3 |
| 20260503202101 | 59 | 318 | 3.5 | 11.3 | 0.00 | 0.00 | 0.00 | 38 | 1012.4 |
| 20260503201601 | 60 | 234 | 1.7 | 11.3 | 0.00 | 0.00 | 0.00 | 35 | 1012.4 |
| 20260503201059 | 59 | 343 | 5.2 | 13.0 | 0.00 | 0.00 | 0.00 | 35 | 1012.6 |
| 20260503200559 | 59 | 321 | 6.1 | 13.0 | 0.00 | 0.00 | 0.00 | 33 | 1012.6 |
| 20260503200100 | 59 | 306 | 5.2 | 12.2 | 0.00 | 0.00 | 0.00 | 35 | 1012.7 |
| 20260503195558 | 59 | 38 | 1.7 | 9.6 | 0.00 | 0.00 | 0.00 | 37 | 1012.7 |
| 20260503195059 | 58 | 12 | 3.5 | 15.6 | 0.00 | 0.00 | 0.00 | 37 | 1012.8 |
| 20260503194601 | 58 | 246 | 3.5 | 15.6 | 0.00 | 0.00 | 0.00 | 35 | 1012.8 |
| 20260503194101 | 59 | 278 | 6.1 | 15.6 | 0.00 | 0.00 | 0.00 | 35 | 1012.9 |
| 20260503193559 | 58 | 347 | 5.2 | 10.4 | 0.00 | 0.00 | 0.00 | 38 | 1012.9 |
| 20260503193112 | 58 | 297 | 3.5 | 15.6 | 0.00 | 0.00 | 0.00 | 34 | 1012.9 |
| 20260503192559 | 58 | 81 | 2.6 | 15.6 | 0.00 | 0.00 | 0.00 | 35 | 1012.9 |
| 20260503192059 | 58 | 323 | 6.1 | 15.6 | 0.00 | 0.00 | 0.00 | 35 | 1013.1 |
| 20260503191600 | 58 | 321 | 5.2 | 14.8 | 0.00 | 0.00 | 0.00 | 35 | 1013.0 |
| 20260503191101 | 58 | 69 | 6.1 | 14.8 | 0.00 | 0.00 | 0.00 | 35 | 1013.1 |
| 20260503190559 | 58 | 329 | 5.2 | 13.9 | 0.00 | 0.00 | 0.00 | 35 | 1013.1 |
| 20260503190107 | 58 | 352 | 6.1 | 17.4 | 0.00 | 0.00 | 0.00 | 35 | 1013.0 |
| 20260503185559 | 58 | 319 | 7.8 | 17.4 | 0.00 | 0.00 | 0.00 | 36 | 1013.2 |
| 20260503185100 | 58 | 261 | 3.5 | 12.2 | 0.00 | 0.00 | 0.00 | 37 | 1013.2 |
| 20260503184602 | 57 | 317 | 4.3 | 12.2 | 0.00 | 0.00 | 0.00 | 37 | 1013.1 |
| 20260503184059 | 57 | 291 | 4.3 | 12.2 | 0.00 | 0.00 | 0.00 | 37 | 1013.2 |
| 20260503183559 | 57 | 59 | 5.2 | 13.9 | 0.00 | 0.00 | 0.00 | 36 | 1013.3 |
| 20260503183110 | 56 | 311 | 8.7 | 17.4 | 0.00 | 0.00 | 0.00 | 38 | 1013.3 |
| 20260503182557 | 56 | 288 | 7.8 | 20.0 | 0.00 | 0.00 | 0.00 | 38 | 1013.3 |
| 20260503182059 | 56 | 26 | 11.3 | 20.0 | 0.00 | 0.00 | 0.00 | 35 | 1013.5 |
| 20260503181559 | 56 | 308 | 7.8 | 16.5 | 0.00 | 0.00 | 0.00 | 37 | 1013.5 |
| 20260503181101 | 55 | 281 | 4.3 | 11.3 | 0.00 | 0.00 | 0.00 | 38 | 1013.5 |
| 20260503180600 | 55 | 271 | 3.5 | 13.9 | 0.00 | 0.00 | 0.00 | 39 | 1013.6 |
| 20260503180100 | 55 | 344 | 4.3 | 15.6 | 0.00 | 0.00 | 0.00 | 37 | 1013.5 |
| 20260503175559 | 55 | 292 | 4.3 | 15.6 | 0.00 | 0.00 | 0.00 | 38 | 1013.5 |